Date,TemperatureHighF,TemperatureAvgF,TemperatureLowF,DewpointHighF,DewpointAvgF,DewpointLowF,HumidityHigh,HumidityAvg,HumidityLow,PressureMaxIn,PressureMinIn,WindSpeedMaxMPH,WindSpeedAvgMPH,GustSpeedMaxMPH,PrecipitationSumIn
2013-2-1,80,68,63,67,61,58,87,79,49,30.09,30.04,6,0,6,0.00
2013-2-3,75,70,67,64,62,61,86,75,63,30.01,29.98,5,0,5,0.13
2013-2-4,87,73,64,69,62,57,89,69,41,30.09,30.01,10,1,10,0.00
2013-2-5,76,68,65,66,63,60,90,84,67,30.15,30.04,8,1,8,0.12
2013-2-6,78,69,66,66,63,62,91,81,61,30.18,30.06,8,2,8,0.00
2013-2-7,82,70,66,68,63,61,91,80,55,30.12,30.01,11,2,11,0.04
2013-2-8,84,71,66,68,64,60,91,79,50,30.06,29.95,8,2,8,1.71
2013-2-9,82,69,66,68,64,60,93,86,58,30.09,29.98,8,1,8,1.36
2013-2-10,83,70,65,67,64,60,92,81,51,30.06,29.98,8,1,8,0.59
2013-2-11,81,72,66,65,62,56,93,73,47,30.06,29.95,10,1,10,0.09
2013-2-12,82,72,64,65,63,59,92,73,48,30.06,29.95,10,1,10,0.00
2013-2-13,82,71,66,66,63,58,90,76,52,30.06,29.95,12,2,12,0.00
2013-2-14,82,72,67,66,62,56,87,73,47,30.04,29.95,10,1,10,0.00
2013-2-15,82,71,62,65,60,49,89,71,35,30.06,29.95,9,1,9,0.00
2013-2-16,81,72,65,63,59,53,87,66,41,30.09,29.98,11,2,11,0.00
2013-2-17,80,71,64,64,58,53,88,66,43,30.06,29.98,10,2,10,0.00
2013-2-18,82,71,61,61,57,51,88,64,39,30.04,29.95,10,1,10,0.00
2013-2-19,85,70,58,65,54,46,83,59,31,30.04,29.95,11,1,11,0.00
2013-2-20,86,72,59,62,55,50,83,59,30,30.06,29.98,10,1,10,0.00
2013-2-21,85,73,67,66,62,57,84,68,45,30.15,29.98,14,2,14,0.37
2013-2-22,83,71,64,66,62,59,90,76,49,30.12,30.01,11,1,11,0.00
2013-2-23,84,72,64,66,60,49,91,69,37,30.15,30.04,7,1,7,0.00
2013-2-24,84,72,63,66,58,49,91,65,31,30.15,30.06,14,2,14,0.00
2013-2-25,81,70,58,61,56,52,84,64,41,30.18,30.09,9,2,9,0.00
2013-2-26,81,70,60,62,58,54,87,68,43,30.24,30.12,8,1,8,0.00
2013-2-27,83,72,64,64,60,55,88,67,44,30.21,30.09,9,2,9,0.00
2013-2-28,68,67,65,63,62,61,88,85,78,30.06,30.04,2,0,2,0.63